When you browse on this site, cookies collect data to enhance your experience and personalize the content and advertising you see.
Visit our Privacy Policy to learn more. By continuing to use the site, you agree to this use of cookies and data.
  • In Slovakia
  • List of Countries
  • For 7 days
  • Water Temperature
  • Weather Map
  • Weather Widgets
  • user-avatar
    Login

    Hourly Weather Bregenz

    Today, 29 January, Wednesday

    Time Temperature Precipitation Wind Pressure Humidity
    00:00 -6°C° 1.2 mm 3 mps 637 mmHg 94%
    01:00 -6°C° 0 mm 3 mps 637 mmHg 96%
    02:00 -6°C° 1.5 mm 3 mps 637 mmHg 94%
    03:00 -5°C° 1.5 mm 4 mps 637 mmHg 93%
    04:00 -5°C° 1.5 mm 4 mps 637 mmHg 91%
    05:00 -5°C° 1.8 mm 4 mps 638 mmHg 92%
    06:00 -6°C° 1.8 mm 3 mps 639 mmHg 93%
    07:00 -6°C° 0 mm 3 mps 639 mmHg 94%
    08:00 -6°C° 1.1 mm 3 mps 639 mmHg 94%
    09:00 -5°C° 1.1 mm 2 mps 640 mmHg 94%
    10:00 -4°C° 1.1 mm 2 mps 640 mmHg 94%
    11:00 -4°C° 1.2 mm 2 mps 640 mmHg 95%
    12:00 -4°C° 1.2 mm 2 mps 640 mmHg 95%
    13:00 -3°C° 0 mm 2 mps 640 mmHg 96%
    14:00 -3°C° 1.3 mm 2 mps 640 mmHg 95%
    15:00 -4°C° 1.3 mm 3 mps 640 mmHg 94%
    16:00 -4°C° 1.3 mm 3 mps 640 mmHg 94%
    17:00 -4°C° 0.8 mm 3 mps 641 mmHg 94%
    18:00 -4°C° 0.8 mm 3 mps 642 mmHg 94%
    19:00 -4°C° 0.8 mm 3 mps 643 mmHg 95%
    20:00 -4°C° 0.4 mm 3 mps 643 mmHg 95%
    21:00 -3°C° 0.4 mm 2 mps 644 mmHg 95%
    22:00 -3°C° 0.4 mm 2 mps 644 mmHg 95%
    23:00 -4°C° 0.1 mm 2 mps 644 mmHg 94%

    Tomorrow, 30 January, Thursday

    Time Temperature Precipitation Wind Pressure Humidity
    00:00 -4°C° 0.1 mm 2 mps 644 mmHg 93%
    01:00 -5°C° 0.1 mm 2 mps 645 mmHg 92%
    02:00 -5°C° 0 mm 2 mps 644 mmHg 89%
    03:00 -5°C° 0 mm 2 mps 644 mmHg 86%
    04:00 -6°C° 0 mm 2 mps 644 mmHg 84%
    05:00 -6°C° 0 mm 2 mps 644 mmHg 82%
    06:00 -6°C° 0 mm 2 mps 644 mmHg 79%
    07:00 -7°C° 0 mm 3 mps 643 mmHg 77%
    08:00 -5°C° 0 mm 2 mps 643 mmHg 75%
    09:00 -4°C° 0 mm 2 mps 644 mmHg 74%
    10:00 -3°C° 0 mm 2 mps 644 mmHg 73%
    11:00 -2°C° 0 mm 2 mps 644 mmHg 77%
    12:00 -1°C° 0 mm 2 mps 643 mmHg 80%
    13:00 +3°C° 0 mm 1 mps 643 mmHg 84%
    14:00 +3°C° 0 mm 1 mps 643 mmHg 82%
    15:00 +3°C° 0 mm 1 mps 643 mmHg 80%
    16:00 +3°C° 0 mm 1 mps 642 mmHg 79%
    17:00 +1°C° 0.2 mm 2 mps 642 mmHg 80%
    18:00 +1°C° 0.2 mm 2 mps 642 mmHg 81%
    19:00 -1°C° 0.2 mm 2 mps 642 mmHg 82%
    20:00 -1°C° 1.2 mm 2 mps 642 mmHg 85%
    21:00 -1°C° 1.2 mm 3 mps 642 mmHg 89%
    22:00 -1°C° 1.2 mm 3 mps 642 mmHg 92%
    23:00 -1°C° 0.9 mm 3 mps 643 mmHg 92%

    Day after tomorrow, 31 January, Friday

    Time Temperature Precipitation Wind Pressure Humidity
    00:00 -1°C° 0.9 mm 3 mps 643 mmHg 92%
    01:00 -1°C° 0.9 mm 3 mps 643 mmHg 92%
    02:00 0°C° 0.5 mm 3 mps 643 mmHg 93%
    03:00 +1°C° 0.5 mm 2 mps 643 mmHg 93%
    04:00 +1°C° 0.5 mm 2 mps 643 mmHg 94%
    05:00 +1°C° 0.3 mm 2 mps 643 mmHg 94%
    06:00 +2°C° 0.3 mm 2 mps 644 mmHg 94%
    07:00 +2°C° 0.3 mm 2 mps 644 mmHg 94%
    08:00 +2°C° 0 mm 2 mps 644 mmHg 94%
    09:00 +2°C° 0 mm 2 mps 644 mmHg 94%
    10:00 +2°C° 0 mm 2 mps 644 mmHg 94%
    11:00 +3°C° 0 mm 2 mps 644 mmHg 94%
    12:00 +3°C° 0 mm 2 mps 644 mmHg 94%
    13:00 +5°C° 0 mm 1 mps 645 mmHg 94%
    14:00 +5°C° 0 mm 1 mps 644 mmHg 94%
    15:00 +4°C° 0 mm 1 mps 644 mmHg 95%
    16:00 +3°C° 0 mm 2 mps 644 mmHg 95%
    17:00 +3°C° 0 mm 2 mps 644 mmHg 95%
    18:00 +2°C° 0 mm 2 mps 644 mmHg 95%
    19:00 +2°C° 0 mm 2 mps 645 mmHg 95%
    20:00 +2°C° 0 mm 2 mps 645 mmHg 94%
    21:00 +2°C° 0 mm 2 mps 645 mmHg 93%
    22:00 +2°C° 0 mm 2 mps 645 mmHg 92%
    23:00 +2°C° 0 mm 2 mps 644 mmHg 91%

    1 February, Saturday

    Time Temperature Precipitation Wind Pressure Humidity
    00:00 +2°C° 0 mm 2 mps 644 mmHg 90%
    01:00 +2°C° 0 mm 2 mps 644 mmHg 89%
    02:00 +1°C° 0 mm 2 mps 644 mmHg 88%
    03:00 +1°C° 0 mm 2 mps 644 mmHg 87%
    04:00 +1°C° 0 mm 2 mps 643 mmHg 86%
    05:00 +1°C° 0 mm 2 mps 643 mmHg 85%
    06:00 -1°C° 0 mm 2 mps 643 mmHg 84%
    07:00 -1°C° 0 mm 2 mps 643 mmHg 82%
    08:00 +1°C° 0 mm 2 mps 643 mmHg 83%
    09:00 +1°C° 0 mm 2 mps 643 mmHg 84%
    10:00 +2°C° 0 mm 2 mps 643 mmHg 84%
    11:00 +2°C° 0.3 mm 2 mps 643 mmHg 87%
    12:00 +2°C° 0.3 mm 2 mps 643 mmHg 91%
    13:00 +3°C° 0.3 mm 2 mps 643 mmHg 94%
    14:00 +3°C° 0.4 mm 2 mps 642 mmHg 93%
    15:00 +3°C° 0.4 mm 2 mps 642 mmHg 92%
    16:00 +3°C° 0.4 mm 2 mps 642 mmHg 91%
    17:00 +2°C° 0.4 mm 3 mps 642 mmHg 92%
    18:00 +1°C° 0.4 mm 3 mps 642 mmHg 92%
    19:00 +1°C° 0.4 mm 3 mps 642 mmHg 93%
    20:00 +1°C° 1.9 mm 3 mps 643 mmHg 93%
    21:00 +1°C° 1.9 mm 3 mps 644 mmHg 93%
    22:00 +1°C° 1.9 mm 3 mps 645 mmHg 93%
    23:00 +1°C° 0.4 mm 3 mps 645 mmHg 94%

    2 February, Sunday

    Time Temperature Precipitation Wind Pressure Humidity
    00:00 0°C° 0.4 mm 3 mps 645 mmHg 94%
    01:00 0°C° 0.4 mm 3 mps 645 mmHg 94%
    02:00 0°C° 0.2 mm 3 mps 645 mmHg 94%
    03:00 0°C° 0.2 mm 3 mps 645 mmHg 93%
    04:00 0°C° 0.2 mm 3 mps 646 mmHg 93%
    05:00 +1°C° 0 mm 2 mps 646 mmHg 92%
    06:00 -1°C° 0 mm 2 mps 646 mmHg 91%
    07:00 -1°C° 0 mm 2 mps 646 mmHg 89%
    08:00 +1°C° 0 mm 2 mps 646 mmHg 88%
    09:00 +1°C° 0 mm 2 mps 646 mmHg 87%
    10:00 +1°C° 0 mm 2 mps 646 mmHg 85%
    11:00 +1°C° 0.3 mm 2 mps 646 mmHg 87%
    12:00 0°C° 0.3 mm 3 mps 645 mmHg 88%
    13:00 0°C° 0.3 mm 3 mps 645 mmHg 89%
    14:00 0°C° 2.2 mm 3 mps 645 mmHg 91%
    15:00 +1°C° 2.2 mm 3 mps 644 mmHg 93%
    16:00 +1°C° 2.2 mm 3 mps 644 mmHg 95%
    17:00 +1°C° 2.9 mm 3 mps 644 mmHg 95%
    18:00 +1°C° 2.9 mm 3 mps 645 mmHg 96%
    19:00 +2°C° 2.9 mm 3 mps 645 mmHg 96%
    20:00 +2°C° 3.3 mm 3 mps 646 mmHg 96%
    21:00 +2°C° 3.3 mm 3 mps 646 mmHg 96%
    22:00 +2°C° 3.3 mm 3 mps 646 mmHg 96%
    23:00 +2°C° 2 mm 3 mps 646 mmHg 96%

    3 February, Monday

    Time Temperature Precipitation Wind Pressure Humidity
    00:00 +2°C° 2 mm 3 mps 647 mmHg 96%
    01:00 +2°C° 2 mm 3 mps 647 mmHg 95%
    02:00 +2°C° 1.3 mm 3 mps 647 mmHg 95%
    03:00 +3°C° 1.3 mm 2 mps 647 mmHg 95%
    04:00 +3°C° 1.3 mm 2 mps 646 mmHg 95%
    05:00 +3°C° 0.5 mm 2 mps 646 mmHg 94%
    06:00 +3°C° 0.5 mm 2 mps 646 mmHg 94%
    07:00 +2°C° 0.5 mm 3 mps 646 mmHg 93%
    08:00 +3°C° 0 mm 3 mps 647 mmHg 91%
    09:00 +3°C° 0 mm 3 mps 647 mmHg 90%
    10:00 +3°C° 0 mm 3 mps 647 mmHg 88%
    11:00 +5°C° 0 mm 2 mps 648 mmHg 86%
    12:00 +6°C° 0 mm 2 mps 648 mmHg 85%
    13:00 +6°C° 0 mm 2 mps 648 mmHg 83%
    14:00 +6°C° 0 mm 2 mps 647 mmHg 84%
    15:00 +4°C° 0 mm 3 mps 647 mmHg 85%
    16:00 +4°C° 0 mm 3 mps 647 mmHg 87%
    17:00 +3°C° 0 mm 3 mps 646 mmHg 83%
    18:00 +3°C° 0 mm 3 mps 646 mmHg 80%
    19:00 +2°C° 0 mm 3 mps 646 mmHg 76%
    20:00 +2°C° 0 mm 3 mps 646 mmHg 74%
    21:00 +2°C° 0 mm 3 mps 645 mmHg 71%
    22:00 +2°C° 0 mm 3 mps 645 mmHg 69%
    23:00 +2°C° 0 mm 3 mps 645 mmHg 68%
    Show more